This is the latest recevied weather packets stored in our database for station/object KO6LQJ. If no packets are shown the sender has not sent any weather packets the latest 10 day(s).
| Time | Temp. | Humidity | Pressure | Rain* | Wind** | Luminosity | Snow |
|---|---|---|---|---|---|---|---|
| 1777428779 | 18.33° C | 50% | 1017.8 hPa | 0 mm | - | 10 W/m² | - |
| 1777428475 | 18.89° C | 49% | 1017.7 hPa | 0 mm | - | 12 W/m² | - |
| 1777428171 | 18.89° C | 47% | 1018 hPa | 0 mm | - | 15 W/m² | - |
| 1777427867 | 18.89° C | 47% | 1017.8 hPa | 0 mm | - | 16 W/m² | - |
| 1777427562 | 19.44° C | 46% | 1017.7 hPa | 0 mm | - | 19 W/m² | - |
| 1777427259 | 19.44° C | 44% | 1017.7 hPa | 0 mm | - | 28 W/m² | - |
| 1777426957 | 20° C | 43% | 1017.7 hPa | 0 mm | - | 40 W/m² | - |
| 1777426654 | 20.56° C | 42% | 1017.8 hPa | 0 mm | - | 29 W/m² | - |
| 1777426351 | 21.11° C | 41% | 1017.7 hPa | 0 mm | - | 27 W/m² | - |
| 1777426046 | 21.11° C | 40% | 1017.7 hPa | 0 mm | - | 30 W/m² | - |
| 1777425741 | 21.67° C | 39% | 1017.6 hPa | 0 mm | - | 75 W/m² | - |
| 1777425436 | 21.67° C | 38% | 1017.7 hPa | 0 mm | - | 32 W/m² | - |
| 1777425132 | 21.67° C | 38% | 1017.6 hPa | 0 mm | - | 60 W/m² | - |
| 1777424829 | 21.67° C | 38% | 1017.7 hPa | 0 mm | - | 63 W/m² | - |
| 1777424524 | 22.22° C | 37% | 1017.8 hPa | 0 mm | - | 32 W/m² | - |
| 1777424220 | 22.22° C | 37% | 1017.8 hPa | 0 mm | - | 42 W/m² | - |
| 1777423917 | 21.67° C | 37% | 1017.6 hPa | 0 mm | - | 94 W/m² | - |
| 1777423614 | 22.22° C | 36% | 1017.8 hPa | 0 mm | - | 68 W/m² | - |
| 1777423309 | 21.67° C | 37% | 1017.8 hPa | 0 mm | - | 40 W/m² | - |
| 1777423004 | 21.67° C | 38% | 1017.8 hPa | 0 mm | - | 58 W/m² | - |
| 1777422699 | 22.22° C | 37% | 1017.8 hPa | 0 mm | - | 123 W/m² | - |
| 1777422395 | 21.67° C | 38% | 1017.9 hPa | 0 mm | - | 261 W/m² | - |
| 1777422090 | 21.67° C | 38% | 1017.6 hPa | 0 mm | - | 210 W/m² | - |
| 1777421789 | 22.22° C | 38% | 1017.5 hPa | 0 mm | - | 301 W/m² | - |
| 1777421485 | 21.67° C | 37% | 1017.3 hPa | 0 mm | - | 316 W/m² | - |
* Rain latest hour (hover to see other rain measurements)
** Current wind speed in m/s (hover to see current wind gust speed)